Notices

What's New in latest Release from April 7th, 2021:

- Updated Glossary, including Speed of Maximum Gust, and Total Hourly Precipitation

- Updated national and regional climate services offices contacts and prices information

- Addition of station inventory lists for 1981-2010, 1971-2000, and 1961-1990 Normals.

If you haven't already, please take our survey and provide feedback about our website: https://eccc.sondage-survey.ca/f/LanguageSelection.aspx?s=442ca660-fcf1-47c0-95a9-59707d6fd709

Hourly Data Report for April 05, 2018

MIRAMICHI RCS
NEW BRUNSWICK
Current Station Operator: ECCC - MSC

47°00'34.000" N
65°27'54.000" W
33.00 m
8100989
71744
ACQ

Download Data

Hourly Data (April 2018)
Hourly Data Report for April 5, 2018
TIME
LST
Temp Definition
°C
Dew Point Definition
°C
Rel Hum Definition
%
Precip. Amount Definition
mm

Wind Dir Definition
10's deg

Wind Spd Definition
km/h
Visibility Definition
km
Stn Press Definition
kPa
Hmdx Definition


Wind Chill Definition


Weather Definition


00:00 -0.3 -1.1 95 0.0   0   98.43     LegendNANA
01:00 -0.5 -1.2 95 0.0   0   98.42     LegendNANA
02:00 -0.6 -1.3 95 0.2   0   98.48     LegendNANA
03:00 -0.8 -1.7 94 0.0   0   98.50     LegendNANA
04:00 -0.6 -1.5 94 0.0   0   98.57     LegendNANA
05:00 -0.6 -3.1 83 0.0   0   98.61     LegendNANA
06:00 -1.0 -3.5 83 0.0 28 4   98.70   -2 LegendNANA
07:00 -2.2 -5.4 78 0.0 25 10   98.79   -6 LegendNANA
08:00 -3.2 -6.7 77 0.0 25 11   98.90   -7 LegendNANA
09:00 -4.4 -8.6 72 0.0 26 14   99.04   -10 LegendNANA
10:00 -5.1 -9.0 74 0.0 25 15   99.15   -11 LegendNANA
11:00 -4.7 -9.9 66 0.0 25 19   99.23   -11 LegendNANA
12:00 -4.7 -10.1 66 0.0 25 20   99.32   -11 LegendNANA
13:00 -4.9 -9.5 70 0.0 25 20   99.40   -11 LegendNANA
14:00 -4.7 -10.4 64 0.0 25 24   99.49   -12 LegendNANA
15:00 -5.2 -11.7 60 0.0 26 33   99.60   -14 LegendNANA
16:00 -5.1 -11.7 60 0.0 26 30   99.66   -13 LegendNANA
17:00 -5.5 -12.5 58 0.0 26 32   99.78   -14 LegendNANA
18:00 -6.0 -12.7 59 0.0 26 27   99.88   -14 LegendNANA
19:00 -7.0 -12.9 63 0.0 26 22   99.98   -14 LegendNANA
20:00 -7.6 -12.2 70 0.0 25 20   100.07   -15 LegendNANA
21:00 -7.5 -11.6 73 0.0 27 22   100.21   -15 LegendNANA
22:00 -7.7 -10.8 78 0.0 27 16   100.27   -14 LegendNANA
23:00 -8.0 -13.2 66 0.2 27 23   100.34   -16 LegendNANA

Notes on Data Quality.

Legend

  • E = Estimated
  • M = Missing
  • NA = Not Available*
  • [empty] = Indicates an unobserved value
Date modified: